Change the Weather History Date:

Saturday, October 19, 2013

  Actual Average (KGYR) Record (KGYR)
Temperature  
Mean Temperature 68 °F -  
Max Temperature 86 °F 84 °F 100 °F (2003)
Min Temperature 50 °F 57 °F 51 °F (1998)
Cooling Degree Days 3    
Growing Degree Days 18 (Base 50)    
Moisture  
Dew Point 20 °F    
Average Humidity 19    
Maximum Humidity 32    
Minimum Humidity 7    
Precipitation  
Precipitation 0.00 in - - ()
Sea Level Pressure  
Sea Level Pressure 29.97 in    
Wind  
Wind Speed 5 mph (NW)    
Max Wind Speed 10 mph    
Max Gust Speed -    
Visibility 10 miles    
Events      
Averages and records for this station are not official NWS values.
T = Trace of Precipitation, MM = Missing Value Source: NWS Daily Summary

Daily Weather History Graph

Daily Weather History Graph

Search for Another Location

Airport or City:

Trip Planner

Search our weather history database for the weather conditions in past years. The results will help you decide how hot, cold, wet, or windy it might be!

Date:

Astronomy

Oct. 19, 2013 Rise Set
Actual Time 6:38 AM MST 5:52 PM MST
Civil Twilight 6:13 AM MST 6:17 PM MST
Nautical Twilight 5:44 AM MST 6:46 PM MST
Astronomical Twilight 5:15 AM MST 7:14 PM MST
Moon 6:26 PM MST (10/19) 7:17 AM MST (10/19)
Length of Visible Light 12h 03m
Length of Day
11h 13m
Full, 99% of the Moon is Illuminated
Oct 19
Full
Oct 26
Last Quarter
Nov 3
New
Nov 9
First Quarter
Nov 17
Full

Hourly Weather History & Observations

Time (MST) Temp. Dew Point Humidity Pressure Visibility Wind Dir Wind Speed Gust Speed Precip Events Conditions
12:15 AM 57.2 °F 19.4 °F 23% 29.97 in 10.0 mi North 4.6 mph - N/A   Clear
12:35 AM 55.4 °F 19.4 °F 25% 29.97 in 10.0 mi Calm Calm - N/A   Clear
12:55 AM 55.4 °F 19.4 °F 25% 29.97 in 10.0 mi Calm Calm - N/A   Clear
1:15 AM 53.6 °F 21.2 °F 28% 29.97 in 6.0 mi NW 5.8 mph - N/A   Clear
1:35 AM 55.4 °F 21.2 °F 26% 29.98 in 10.0 mi NNW 6.9 mph - N/A   Clear
1:55 AM 55.4 °F 21.2 °F 26% 29.98 in 10.0 mi NNW 8.1 mph - N/A   Clear
2:15 AM 57.2 °F 19.4 °F 23% 29.98 in 10.0 mi North 9.2 mph - N/A   Clear
2:35 AM 55.4 °F 19.4 °F 25% 29.98 in 10.0 mi North 6.9 mph - N/A   Clear
2:55 AM 55.4 °F 19.4 °F 25% 29.98 in 10.0 mi North 8.1 mph - N/A   Clear
3:15 AM 53.6 °F 19.4 °F 26% 29.98 in 10.0 mi NNE 5.8 mph - N/A   Clear
3:35 AM 51.8 °F 19.4 °F 28% 29.98 in 10.0 mi North 4.6 mph - N/A   Clear
3:55 AM 50.0 °F 19.4 °F 30% 29.99 in 10.0 mi Calm Calm - N/A   Clear
4:15 AM 50.0 °F 19.4 °F 30% 29.99 in 10.0 mi NNW 4.6 mph - N/A   Clear
4:35 AM 50.0 °F 19.4 °F 30% 29.99 in 10.0 mi NNW 4.6 mph - N/A   Clear
4:55 AM 50.0 °F 19.4 °F 30% 29.99 in 10.0 mi NW 5.8 mph - N/A   Clear
5:15 AM 50.0 °F 21.2 °F 32% 30.00 in 9.0 mi NNW 6.9 mph - N/A   Clear
5:35 AM 50.0 °F 19.4 °F 30% 30.00 in 10.0 mi NNW 6.9 mph - N/A   Clear
5:55 AM 51.8 °F 19.4 °F 28% 30.00 in 10.0 mi North 8.1 mph - N/A   Clear
6:15 AM 51.8 °F 19.4 °F 28% 30.00 in 10.0 mi North 9.2 mph - N/A   Clear
6:35 AM 53.6 °F 19.4 °F 26% 30.01 in 10.0 mi North 5.8 mph - N/A   Clear
6:55 AM 51.8 °F 19.4 °F 28% 30.01 in 10.0 mi North 8.1 mph - N/A   Clear
7:15 AM 53.6 °F 19.4 °F 26% 30.01 in 10.0 mi NNW 6.9 mph - N/A   Clear
7:35 AM 53.6 °F 21.2 °F 28% 30.02 in 9.0 mi NNW 5.8 mph - N/A   Clear
7:55 AM 57.2 °F 21.2 °F 25% 30.02 in 9.0 mi NNW 6.9 mph - N/A   Clear
8:15 AM 59.0 °F 21.2 °F 23% 30.03 in 10.0 mi NW 3.5 mph - N/A   Clear
8:35 AM 62.6 °F 21.2 °F 20% 30.04 in 10.0 mi NW 4.6 mph - N/A   Clear
8:55 AM 64.4 °F 23.0 °F 21% 30.04 in 10.0 mi West 3.5 mph - N/A   Clear
9:15 AM 66.2 °F 24.8 °F 21% 30.04 in 10.0 mi SW 4.6 mph - N/A   Clear
9:35 AM 68.0 °F 28.4 °F 23% 30.04 in 10.0 mi WSW 4.6 mph - N/A   Clear
9:55 AM 71.6 °F 28.4 °F 20% 30.04 in 10.0 mi South 3.5 mph - N/A   Clear
11:55 AM 78.8 °F 24.8 °F 14% 30.02 in 10.0 mi ESE 10.4 mph - N/A   Clear
12:15 PM 78.8 °F 23.0 °F 13% 30.01 in 10.0 mi SE 9.2 mph - N/A   Clear
12:35 PM 80.6 °F 24.8 °F 13% 30.00 in 10.0 mi SE 6.9 mph - N/A   Clear
12:55 PM 80.6 °F 23.0 °F 12% 29.99 in 10.0 mi SE 4.6 mph - N/A   Clear
1:15 PM 80.6 °F 23.0 °F 12% 29.98 in 10.0 mi SSE 3.5 mph - N/A   Clear
1:35 PM 82.4 °F 19.4 °F 10% 29.97 in 10.0 mi Calm Calm - N/A   Clear
1:55 PM 82.4 °F 21.2 °F 10% 29.96 in 10.0 mi SSW 3.5 mph - N/A   Clear
2:15 PM 82.4 °F 19.4 °F 10% 29.96 in 10.0 mi WSW 3.5 mph - N/A   Clear
2:35 PM 84.2 °F 19.4 °F 9% 29.95 in 10.0 mi SW 3.5 mph - N/A   Clear
2:55 PM 84.2 °F 19.4 °F 9% 29.94 in 10.0 mi WSW 4.6 mph - N/A   Clear
3:15 PM 84.2 °F 19.4 °F 9% 29.93 in 10.0 mi SW 4.6 mph - N/A   Clear
3:35 PM 86.0 °F 17.6 °F 8% 29.93 in 10.0 mi Calm Calm - N/A   Clear
3:55 PM 86.0 °F 15.8 °F 7% 29.92 in 10.0 mi WNW 4.6 mph - N/A   Clear
4:15 PM 86.0 °F 15.8 °F 7% 29.92 in 10.0 mi West 3.5 mph - N/A   Clear
4:35 PM 86.0 °F 17.6 °F 8% 29.91 in 10.0 mi West 4.6 mph - N/A   Clear
4:55 PM 84.2 °F 19.4 °F 9% 29.91 in 10.0 mi WSW 4.6 mph - N/A   Clear
5:15 PM 84.2 °F 21.2 °F 10% 29.91 in 10.0 mi WSW 5.8 mph - N/A   Clear
5:35 PM 82.4 °F 21.2 °F 10% 29.91 in 10.0 mi WSW 6.9 mph - N/A   Clear
5:55 PM 78.8 °F 24.8 °F 14% 29.91 in 10.0 mi WSW 5.8 mph - N/A   Clear
6:15 PM 77.0 °F 23.0 °F 13% 29.91 in 10.0 mi West 5.8 mph - N/A   Clear
6:35 PM 75.2 °F 19.4 °F 12% 29.91 in 10.0 mi WNW 6.9 mph - N/A   Clear
6:55 PM 75.2 °F 19.4 °F 12% 29.92 in 10.0 mi WNW 5.8 mph - N/A   Clear
7:15 PM 73.4 °F 19.4 °F 13% 29.92 in 10.0 mi WNW 9.2 mph - N/A   Clear
7:35 PM 73.4 °F 19.4 °F 13% 29.92 in 10.0 mi WNW 8.1 mph - N/A   Clear
7:55 PM 73.4 °F 17.6 °F 12% 29.93 in 10.0 mi WNW 8.1 mph - N/A   Clear
8:15 PM 71.6 °F 17.6 °F 13% 29.93 in 10.0 mi WNW 8.1 mph - N/A   Clear
8:35 PM 69.8 °F 17.6 °F 14% 29.93 in 10.0 mi NW 6.9 mph - N/A   Clear
8:55 PM 68.0 °F 19.4 °F 16% 29.93 in 10.0 mi North 9.2 mph - N/A   Clear
9:15 PM 66.2 °F 19.4 °F 17% 29.93 in 10.0 mi NNW 9.2 mph - N/A   Clear
9:35 PM 68.0 °F 17.6 °F 15% 29.93 in 10.0 mi North 9.2 mph - N/A   Clear
9:55 PM 66.2 °F 17.6 °F 15% 29.93 in 10.0 mi NNW 9.2 mph - N/A   Clear
10:15 PM 66.2 °F 17.6 °F 15% 29.93 in 10.0 mi NNW 6.9 mph - N/A   Clear
10:35 PM 66.2 °F 17.6 °F 15% 29.93 in 10.0 mi North 5.8 mph - N/A   Clear
10:55 PM 64.4 °F 17.6 °F 16% 29.93 in 10.0 mi North 6.9 mph - N/A   Clear
11:15 PM 64.4 °F 17.6 °F 16% 29.93 in 10.0 mi NW 4.6 mph - N/A   Clear
11:35 PM 57.2 °F 21.2 °F 25% 29.93 in 10.0 mi WNW 3.5 mph - N/A   Clear
11:55 PM 59.0 °F 17.6 °F 20% 29.93 in 10.0 mi Calm Calm - N/A   Clear